Weather History for Hot Springs, VA

Change the Weather History Date:

Friday, November 11, 2011

  Actual Average Record
Temperature  
Mean Temperature 26 °F -  
Max Temperature 30 °F 45 °F 68 °F (2006)
Min Temperature 23 °F 32 °F 12 °F (1996)
Degree Days  
Heating Degree Days 38    
Moisture  
Dew Point 20 °F    
Average Humidity 77    
Maximum Humidity 100    
Minimum Humidity 60    
Precipitation  
Precipitation 0.00 in - - ()
Sea Level Pressure  
Sea Level Pressure 29.92 in    
Wind  
Wind Speed 17 mph (West)    
Max Wind Speed 24 mph    
Max Gust Speed 39 mph    
Visibility 9 miles    
Events Snow    
Averages and records for this station are not official NWS values.
T = Trace of Precipitation, MM = Missing Value Source: NWS Daily Summary

Daily Weather History Graph

Daily Weather History Graph

Search for Another Location

Airport:

Trip Planner

Search our weather history database for the weather conditions in past years. The results will help you decide how hot, cold, wet, or windy it might be!

Date:

Astronomy

Nov. 11, 2011 Rise Set
Actual Time 6:55 AM EST 5:10 PM EST
Civil Twilight 6:27 AM EST 5:38 PM EST
Nautical Twilight 5:55 AM EST 6:10 PM EST
Astronomical Twilight 5:24 AM EST 6:41 PM EST
Moon 5:40 PM EST (11/11) 7:40 AM EST (11/11)
Length of Visible Light 11h 11m
Length of Day
10h 15m
Full, 99% of the Moon is Illuminated
Nov 11
Full
Nov 18
Last Quarter
Nov 25
New
Dec 2
First Quarter
Dec 10
Full

Hourly Weather History & Observations

Time (EST) Temp. Windchill Dew Point Humidity Pressure Visibility Wind Dir Wind Speed Gust Speed Precip Events Conditions
12:15 AM 26.6 °F 15.2 °F 24.8 °F 93% 29.83 in 10.0 mi WNW 13.8 mph 25.3 mph N/A   Overcast
12:35 AM 26.6 °F 12.7 °F 24.8 °F 93% 29.83 in 1.2 mi WNW 20.7 mph 27.6 mph N/A Snow Light Snow
12:55 AM 24.8 °F 13.4 °F 24.8 °F 100% 29.84 in 2.5 mi WNW 12.7 mph 24.2 mph N/A Snow Light Snow
1:15 AM 24.8 °F 11.5 °F 24.8 °F 100% 29.84 in 0.8 mi West 17.3 mph 26.5 mph N/A Snow Light Snow
1:35 AM 24.8 °F 11.1 °F 24.8 °F 100% 29.83 in 0.2 mi WNW 18.4 mph 24.2 mph N/A Snow Light Snow
1:55 AM 24.8 °F 12.4 °F 23.0 °F 93% 29.82 in 10.0 mi WNW 15.0 mph 26.5 mph N/A   Mostly Cloudy
2:15 AM 24.8 °F 11.1 °F 23.0 °F 93% 29.83 in 10.0 mi West 18.4 mph 26.5 mph N/A   Overcast
2:35 AM 24.8 °F 11.9 °F 21.2 °F 86% 29.83 in 7.0 mi WNW 16.1 mph 24.2 mph N/A Snow Light Snow
2:55 AM 24.8 °F 12.4 °F 21.2 °F 86% 29.83 in 10.0 mi West 15.0 mph 28.8 mph N/A   Overcast
3:35 AM 24.8 °F 10.7 °F 17.6 °F 74% 29.81 in 10.0 mi WNW 19.6 mph 36.8 mph N/A   Overcast
3:55 AM 24.8 °F 10.7 °F 17.6 °F 74% 29.81 in 10.0 mi WNW 19.6 mph 34.5 mph N/A   Mostly Cloudy
4:15 AM 24.8 °F 10.0 °F 17.6 °F 74% 29.81 in 10.0 mi WNW 21.9 mph 39.1 mph N/A   Mostly Cloudy
4:35 AM 24.8 °F 10.0 °F 17.6 °F 74% 29.82 in 10.0 mi WNW 21.9 mph 32.2 mph N/A   Overcast
4:55 AM 24.8 °F 11.9 °F 17.6 °F 74% 29.83 in 10.0 mi WNW 16.1 mph 32.2 mph N/A   Overcast
5:15 AM 24.8 °F 11.1 °F 17.6 °F 74% 29.83 in 10.0 mi WNW 18.4 mph 31.1 mph N/A   Overcast
5:35 AM 24.8 °F 10.7 °F 19.4 °F 80% 29.84 in 10.0 mi West 19.6 mph 29.9 mph N/A   Overcast
5:55 AM 24.8 °F 10.7 °F 19.4 °F 80% 29.84 in 10.0 mi West 19.6 mph 27.6 mph N/A   Overcast
6:15 AM 24.8 °F 9.3 °F 17.6 °F 74% 29.84 in 10.0 mi West 24.2 mph 33.4 mph N/A   Overcast
6:35 AM 23.0 °F 8.0 °F 19.4 °F 86% 29.85 in 10.0 mi WNW 20.7 mph 33.4 mph N/A   Overcast
6:55 AM 23.0 °F 8.7 °F 19.4 °F 86% 29.86 in 10.0 mi West 18.4 mph 24.2 mph N/A   Overcast
7:15 AM 24.8 °F 12.4 °F 19.4 °F 80% 29.87 in 10.0 mi West 15.0 mph 32.2 mph N/A   Overcast
7:35 AM 24.8 °F 10.7 °F 19.4 °F 80% 29.89 in 10.0 mi WNW 19.6 mph 28.8 mph N/A   Overcast
7:55 AM 24.8 °F 11.5 °F 19.4 °F 80% 29.89 in 10.0 mi WNW 17.3 mph 27.6 mph N/A   Overcast
8:15 AM 24.8 °F 10.7 °F 19.4 °F 80% 29.90 in 10.0 mi West 19.6 mph 31.1 mph N/A   Overcast
8:35 AM 24.8 °F 10.0 °F 19.4 °F 80% 29.91 in 10.0 mi WNW 21.9 mph 32.2 mph N/A   Overcast
8:55 AM 24.8 °F 10.7 °F 21.2 °F 86% 29.92 in 10.0 mi WNW 19.6 mph 28.8 mph N/A   Overcast
9:15 AM 24.8 °F 11.9 °F 21.2 °F 86% 29.92 in 10.0 mi West 16.1 mph 27.6 mph N/A   Overcast
9:35 AM 24.8 °F 11.1 °F 21.2 °F 86% 29.93 in 10.0 mi WNW 18.4 mph 28.8 mph N/A   Overcast
9:55 AM 24.8 °F 12.4 °F 21.2 °F 86% 29.94 in 10.0 mi WNW 15.0 mph 20.7 mph N/A   Overcast
10:15 AM 24.8 °F 10.7 °F 21.2 °F 86% 29.95 in 10.0 mi West 19.6 mph 27.6 mph N/A   Overcast
10:35 AM 24.8 °F 11.9 °F 21.2 °F 86% 29.95 in 10.0 mi WNW 16.1 mph 26.5 mph N/A   Overcast
10:55 AM 24.8 °F 12.4 °F 21.2 °F 86% 29.94 in 10.0 mi WNW 15.0 mph 27.6 mph N/A   Overcast
11:15 AM 26.6 °F 12.4 °F 21.2 °F 80% 29.94 in 10.0 mi West 21.9 mph 29.9 mph N/A   Overcast
11:35 AM 26.6 °F 12.7 °F 21.2 °F 80% 29.94 in 10.0 mi WNW 20.7 mph 31.1 mph N/A   Overcast
11:55 AM 26.6 °F 13.1 °F 21.2 °F 80% 29.94 in 10.0 mi West 19.6 mph 27.6 mph N/A   Overcast
12:15 PM 28.4 °F 14.7 °F 21.2 °F 74% 29.94 in 10.0 mi West 21.9 mph 28.8 mph N/A   Overcast
12:35 PM 28.4 °F 16.2 °F 21.2 °F 74% 29.94 in 10.0 mi WNW 17.3 mph 28.8 mph N/A   Mostly Cloudy
12:55 PM 28.4 °F 16.2 °F 21.2 °F 74% 29.95 in 10.0 mi West 17.3 mph 31.1 mph N/A   Overcast
1:15 PM 30.2 °F 17.4 °F 21.2 °F 69% 29.95 in 10.0 mi West 20.7 mph 27.6 mph N/A   Mostly Cloudy
1:35 PM 28.4 °F 16.6 °F 21.2 °F 74% 29.95 in 10.0 mi West 16.1 mph 28.8 mph N/A   Scattered Clouds
1:55 PM 28.4 °F 15.4 °F 21.2 °F 74% 29.96 in 10.0 mi West 19.6 mph 24.2 mph N/A   Mostly Cloudy
2:15 PM 28.4 °F 15.8 °F 21.2 °F 74% 29.96 in 10.0 mi West 18.4 mph 32.2 mph N/A   Overcast
2:35 PM 28.4 °F 15.1 °F 21.2 °F 74% 29.97 in 10.0 mi West 20.7 mph 27.6 mph N/A   Mostly Cloudy
2:55 PM 30.2 °F 18.1 °F 21.2 °F 69% 29.97 in 10.0 mi West 18.4 mph 29.9 mph N/A   Mostly Cloudy
3:15 PM 30.2 °F 18.5 °F 21.2 °F 69% 29.98 in 10.0 mi WNW 17.3 mph 24.2 mph N/A   Mostly Cloudy
3:35 PM 30.2 °F 21.3 °F 21.2 °F 69% 29.99 in 10.0 mi WNW 10.4 mph 17.3 mph N/A   Scattered Clouds
4:15 PM 30.2 °F 19.3 °F 19.4 °F 64% 29.99 in 10.0 mi West 15.0 mph 21.9 mph N/A   Clear
4:35 PM 30.2 °F 20.8 °F 19.4 °F 64% 30.00 in 10.0 mi West 11.5 mph - N/A   Clear
4:55 PM 30.2 °F 21.9 °F 19.4 °F 64% 30.00 in 10.0 mi West 9.2 mph 17.3 mph N/A   Clear
5:35 PM 28.4 °F 18.5 °F 21.2 °F 74% 30.01 in 10.0 mi West 11.5 mph - N/A   Clear
5:55 PM 28.4 °F 18.0 °F 21.2 °F 74% 30.01 in 10.0 mi West 12.7 mph - N/A   Clear
6:15 PM 28.4 °F 18.0 °F 19.4 °F 69% 30.01 in 10.0 mi West 12.7 mph 19.6 mph N/A   Clear
6:35 PM 30.2 °F 19.8 °F 17.6 °F 60% 30.01 in 10.0 mi West 13.8 mph - N/A   Clear
6:55 PM 30.2 °F 19.3 °F 17.6 °F 60% 30.02 in 10.0 mi West 15.0 mph - N/A   Clear
7:15 PM 30.2 °F 19.3 °F 17.6 °F 60% 30.02 in 10.0 mi West 15.0 mph - N/A   Clear
7:35 PM 30.2 °F 19.8 °F 17.6 °F 60% 30.03 in 10.0 mi West 13.8 mph - N/A   Clear
7:55 PM 28.4 °F 17.0 °F 17.6 °F 64% 30.03 in 10.0 mi West 15.0 mph 18.4 mph N/A   Clear
8:15 PM 28.4 °F 16.6 °F 17.6 °F 64% 30.03 in 10.0 mi West 16.1 mph - N/A   Clear
8:35 PM 30.2 °F 18.1 °F 17.6 °F 60% 30.03 in 10.0 mi West 18.4 mph 27.6 mph N/A   Clear
8:55 PM 30.2 °F 18.5 °F 17.6 °F 60% 30.04 in 10.0 mi West 17.3 mph 24.2 mph N/A   Clear
9:15 PM 30.2 °F 18.5 °F 17.6 °F 60% 30.05 in 10.0 mi West 17.3 mph - N/A   Clear
9:35 PM 30.2 °F 18.9 °F 17.6 °F 60% 30.05 in 10.0 mi West 16.1 mph 24.2 mph N/A   Clear
9:55 PM 30.2 °F 18.5 °F 17.6 °F 60% 30.05 in 10.0 mi West 17.3 mph 21.9 mph N/A   Clear
10:15 PM 30.2 °F 18.1 °F 17.6 °F 60% 30.05 in 10.0 mi West 18.4 mph - N/A   Clear
10:35 PM 30.2 °F 18.5 °F 15.8 °F 55% 30.05 in 10.0 mi West 17.3 mph - N/A   Clear
10:55 PM 30.2 °F 18.9 °F 15.8 °F 55% 30.05 in 10.0 mi West 16.1 mph - N/A   Clear
11:15 PM 30.2 °F 18.9 °F 15.8 °F 55% 30.05 in 10.0 mi West 16.1 mph - N/A   Clear
11:35 PM 30.2 °F 19.3 °F 15.8 °F 55% 30.05 in 10.0 mi West 15.0 mph - N/A   Clear
11:55 PM 30.2 °F 19.3 °F 17.6 °F 60% 30.06 in 10.0 mi West 15.0 mph - N/A   Clear